AVA12 MROC-SKSP

Flight info

Callsign AVA12
Flight time 0h 40m
Altitude 29000
Route NANJO4C COLOR UP798 AMUBI AMUBI1C
Aircraft A20N/M-SDE2E3FGHIRWXY/LB1

Departure

Time 2026-05-03 23:52
Airport Juan Santamaría International Airport (MROC)

Arrival

Time 2026-05-04 00:32
Airport Gustavo Rojas Pinilla International Airport (SKSP)
Time Latitude Longitude Altitude Speed Heading
2026-05-03 23:36 9.99753 -84.20350 3034 ft 0 kts 339°
2026-05-03 23:44 9.99747 -84.20348 3034 ft 4 kts 339°
2026-05-03 23:45 9.99722 -84.20337 3040 ft 4 kts 329°
2026-05-03 23:45 9.99701 -84.20321 3034 ft 3 kts 317°
2026-05-03 23:45 9.99699 -84.20319 3034 ft 3 kts 317°
2026-05-03 23:47 9.99698 -84.20322 3034 ft 0 kts 294°
2026-05-03 23:47 9.99684 -84.20352 3034 ft 10 kts 248°
2026-05-03 23:47 9.99654 -84.20440 3034 ft 15 kts 250°
2026-05-03 23:48 9.99616 -84.20543 3035 ft 16 kts 248°
2026-05-03 23:48 9.99572 -84.20656 3036 ft 18 kts 248°
2026-05-03 23:48 9.99526 -84.20778 3034 ft 19 kts 250°
2026-05-03 23:48 9.99477 -84.20910 3031 ft 22 kts 249°
2026-05-03 23:49 9.99414 -84.21077 3012 ft 29 kts 249°
2026-05-03 23:49 9.99334 -84.21291 2999 ft 36 kts 249°
2026-05-03 23:49 9.99239 -84.21545 2979 ft 41 kts 249°
2026-05-03 23:49 9.99139 -84.21813 2962 ft 40 kts 250°
2026-05-03 23:50 9.99103 -84.22010 2956 ft 24 kts 276°
2026-05-03 23:50 9.99094 -84.22091 2950 ft 16 kts 253°
2026-05-03 23:50 9.98999 -84.22200 2946 ft 16 kts 170°
2026-05-03 23:50 9.98934 -84.22174 2948 ft 14 kts 149°
2026-05-03 23:51 9.98927 -84.22124 2950 ft 8 kts 70°
2026-05-03 23:51 9.99027 -84.21856 2968 ft 82 kts 69°
2026-05-03 23:51 9.99454 -84.20713 3034 ft 174 kts 69°
2026-05-03 23:51 9.99770 -84.19911 3454 ft 183 kts 68°
2026-05-03 23:52 10.00477 -84.18870 4478 ft 182 kts 28°
2026-05-03 23:52 10.01717 -84.18786 5455 ft 189 kts 346°
2026-05-03 23:52 10.02955 -84.19342 6154 ft 201 kts 331°
2026-05-03 23:52 10.04175 -84.20190 6378 ft 225 kts 326°
2026-05-03 23:53 10.05387 -84.21320 6669 ft 249 kts 305°
2026-05-03 23:53 10.06110 -84.23008 7028 ft 274 kts 290°
2026-05-03 23:53 10.06757 -84.24890 7546 ft 288 kts 291°
2026-05-03 23:53 10.07431 -84.26798 8292 ft 293 kts 291°
2026-05-03 23:54 10.08134 -84.28756 9094 ft 297 kts 291°
2026-05-03 23:54 10.08921 -84.30705 9902 ft 300 kts 302°
2026-05-03 23:54 10.10265 -84.32350 10306 ft 314 kts 323°
2026-05-03 23:54 10.12268 -84.33352 10556 ft 331 kts 348°
2026-05-03 23:55 10.14579 -84.33422 11070 ft 337 kts 12°
2026-05-03 23:55 10.16806 -84.32646 11728 ft 341 kts 24°
2026-05-03 23:55 10.18998 -84.31698 12428 ft 344 kts 24°
2026-05-03 23:55 10.21202 -84.30726 13099 ft 349 kts 25°
2026-05-03 23:56 10.23444 -84.29730 13771 ft 353 kts 25°
2026-05-03 23:56 10.25701 -84.28693 14350 ft 357 kts 29°
2026-05-03 23:56 10.27772 -84.27294 14938 ft 360 kts 41°
2026-05-03 23:56 10.29528 -84.25472 15515 ft 362 kts 53°
2026-05-03 23:57 10.30992 -84.23373 16082 ft 366 kts 56°
2026-05-03 23:57 10.32440 -84.21243 16635 ft 370 kts 56°
2026-05-03 23:57 10.33438 -84.19777 17015 ft 373 kts 56°
2026-05-03 23:57 10.34922 -84.17599 17558 ft 377 kts 56°
2026-05-03 23:58 10.36421 -84.15400 18093 ft 381 kts 56°
2026-05-03 23:58 10.37941 -84.13170 18569 ft 385 kts 56°
2026-05-03 23:58 10.39474 -84.10927 19041 ft 388 kts 56°
2026-05-03 23:58 10.41021 -84.08661 19518 ft 392 kts 56°
2026-05-03 23:59 10.42576 -84.06377 19991 ft 395 kts 56°
2026-05-03 23:59 10.44146 -84.04071 20466 ft 398 kts 56°
2026-05-03 23:59 10.45711 -84.01773 20938 ft 401 kts 56°
2026-05-03 23:59 10.47308 -83.99434 21408 ft 404 kts 56°
2026-05-04 00:00 10.48920 -83.97075 21880 ft 408 kts 56°
2026-05-04 00:00 10.50541 -83.94701 22351 ft 411 kts 56°
2026-05-04 00:00 10.52174 -83.92309 22815 ft 414 kts 56°
2026-05-04 00:00 10.53825 -83.89886 23266 ft 417 kts 56°
2026-05-04 00:01 10.55478 -83.87459 23671 ft 420 kts 56°
2026-05-04 00:01 10.57146 -83.85009 24034 ft 423 kts 56°
2026-05-04 00:01 10.58824 -83.82543 24407 ft 425 kts 56°
2026-05-04 00:01 10.60508 -83.80070 24768 ft 427 kts 56°
2026-05-04 00:02 10.62206 -83.77577 25129 ft 429 kts 56°
2026-05-04 00:02 10.63909 -83.75073 25480 ft 432 kts 56°
2026-05-04 00:02 10.65617 -83.72555 25830 ft 434 kts 56°
2026-05-04 00:02 10.67338 -83.70018 26171 ft 436 kts 56°
2026-05-04 00:03 10.69060 -83.67484 26513 ft 438 kts 56°
2026-05-04 00:03 10.70795 -83.64931 26840 ft 440 kts 56°
2026-05-04 00:03 10.72538 -83.62368 27160 ft 442 kts 56°
2026-05-04 00:03 10.74289 -83.59789 27478 ft 444 kts 56°
2026-05-04 00:04 10.76211 -83.57381 27779 ft 447 kts 47°
2026-05-04 00:04 10.78422 -83.55138 28088 ft 449 kts 46°
2026-05-04 00:04 10.80647 -83.52896 28387 ft 452 kts 46°
2026-05-04 00:04 10.82882 -83.50640 28683 ft 454 kts 46°
2026-05-04 00:05 10.85128 -83.48372 28899 ft 455 kts 46°
2026-05-04 00:05 10.87349 -83.46130 28944 ft 442 kts 46°
2026-05-04 00:05 10.91636 -83.41804 28945 ft 430 kts 46°
2026-05-04 00:06 10.95868 -83.37515 28948 ft 428 kts 46°
2026-05-04 00:06 11.00081 -83.33239 28948 ft 428 kts 46°
2026-05-04 00:07 11.04299 -83.28960 28948 ft 428 kts 46°
2026-05-04 00:07 11.08522 -83.24680 28948 ft 428 kts 46°
2026-05-04 00:08 11.12711 -83.20439 28939 ft 427 kts 46°
2026-05-04 00:08 11.16926 -83.16167 28937 ft 427 kts 46°
2026-05-04 00:09 11.21127 -83.11901 28929 ft 427 kts 46°
2026-05-04 00:09 11.25331 -83.07636 28925 ft 426 kts 46°
2026-05-04 00:10 11.29537 -83.03371 28921 ft 426 kts 46°
2026-05-04 00:10 11.33739 -82.99108 28923 ft 426 kts 46°
2026-05-04 00:11 11.37937 -82.94837 28926 ft 427 kts 46°
2026-05-04 00:11 11.42138 -82.90562 28924 ft 427 kts 46°
2026-05-04 00:12 11.46323 -82.86302 28478 ft 422 kts 46°
2026-05-04 00:12 11.48391 -82.84196 27967 ft 418 kts 46°
2026-05-04 00:12 11.50444 -82.82105 27475 ft 415 kts 46°
2026-05-04 00:13 11.52480 -82.80034 26997 ft 412 kts 46°
2026-05-04 00:13 11.54501 -82.77978 26534 ft 409 kts 45°
2026-05-04 00:13 11.56504 -82.75936 26084 ft 406 kts 45°
2026-05-04 00:13 11.58475 -82.73926 25640 ft 403 kts 45°
2026-05-04 00:14 11.60455 -82.71911 25189 ft 401 kts 45°
2026-05-04 00:14 11.62441 -82.69936 24755 ft 398 kts 44°
2026-05-04 00:14 11.64457 -82.68000 24322 ft 396 kts 43°
2026-05-04 00:14 11.66472 -82.66101 23891 ft 393 kts 42°
2026-05-04 00:15 11.68475 -82.64220 23462 ft 391 kts 42°
2026-05-04 00:15 11.70468 -82.62345 22971 ft 388 kts 43°
2026-05-04 00:15 11.72437 -82.60485 22504 ft 385 kts 43°
2026-05-04 00:15 11.74394 -82.58628 22051 ft 382 kts 43°
2026-05-04 00:16 11.76328 -82.56786 21610 ft 379 kts 43°
2026-05-04 00:16 11.78253 -82.54946 21174 ft 376 kts 44°
2026-05-04 00:16 11.80154 -82.53128 20753 ft 373 kts 44°
2026-05-04 00:16 11.82043 -82.51320 20336 ft 370 kts 44°
2026-05-04 00:17 11.83913 -82.49526 19920 ft 368 kts 45°
2026-05-04 00:17 11.85776 -82.47741 19521 ft 365 kts 45°
2026-05-04 00:17 11.87600 -82.45997 19132 ft 363 kts 45°
2026-05-04 00:17 11.89438 -82.44243 18753 ft 360 kts 45°
2026-05-04 00:18 11.91257 -82.42504 18377 ft 358 kts 45°
2026-05-04 00:18 11.93070 -82.40771 17971 ft 355 kts 45°
2026-05-04 00:18 11.94869 -82.39051 17559 ft 352 kts 45°
2026-05-04 00:18 11.96653 -82.37348 17175 ft 349 kts 45°
2026-05-04 00:19 11.98416 -82.35662 16789 ft 346 kts 45°
2026-05-04 00:19 12.00170 -82.33984 16404 ft 343 kts 45°
2026-05-04 00:19 12.01905 -82.32323 16043 ft 341 kts 45°
2026-05-04 00:19 12.03630 -82.30672 15648 ft 339 kts 45°
2026-05-04 00:20 12.05348 -82.29029 15239 ft 338 kts 45°
2026-05-04 00:20 12.07037 -82.27414 14856 ft 336 kts 45°
2026-05-04 00:20 12.08744 -82.25782 14470 ft 334 kts 45°
2026-05-04 00:20 12.10435 -82.24162 14083 ft 333 kts 45°
2026-05-04 00:21 12.12119 -82.22548 13690 ft 331 kts 45°
2026-05-04 00:21 12.13790 -82.20944 13259 ft 329 kts 45°
2026-05-04 00:21 12.15457 -82.19349 12837 ft 327 kts 45°
2026-05-04 00:21 12.17108 -82.17769 12417 ft 324 kts 45°
2026-05-04 00:22 12.18747 -82.16199 12002 ft 322 kts 45°
2026-05-04 00:22 12.20373 -82.14638 11591 ft 319 kts 45°
2026-05-04 00:22 12.21990 -82.13087 11186 ft 317 kts 45°
2026-05-04 00:22 12.23586 -82.11554 10790 ft 314 kts 45°
2026-05-04 00:23 12.25171 -82.10033 10397 ft 311 kts 45°
2026-05-04 00:23 12.26743 -82.08524 10009 ft 308 kts 45°
2026-05-04 00:23 12.28304 -82.07026 9592 ft 306 kts 45°
2026-05-04 00:23 12.29847 -82.05544 9166 ft 303 kts 45°
2026-05-04 00:24 12.31376 -82.04074 8740 ft 300 kts 45°
2026-05-04 00:24 12.32862 -82.02647 8321 ft 286 kts 45°
2026-05-04 00:24 12.34284 -82.01284 7916 ft 276 kts 45°
2026-05-04 00:24 12.35503 -82.00118 7598 ft 266 kts 45°
2026-05-04 00:25 12.36763 -81.98909 7259 ft 264 kts 45°
2026-05-04 00:25 12.38092 -81.97631 6912 ft 262 kts 45°
2026-05-04 00:25 12.39413 -81.96361 6566 ft 259 kts 45°
2026-05-04 00:25 12.40704 -81.95118 6216 ft 257 kts 45°
2026-05-04 00:26 12.41997 -81.93873 5848 ft 255 kts 45°
2026-05-04 00:26 12.43294 -81.92628 5481 ft 253 kts 45°
2026-05-04 00:26 12.44568 -81.91398 5122 ft 251 kts 45°
2026-05-04 00:26 12.45828 -81.90185 4763 ft 248 kts 44°
2026-05-04 00:27 12.47076 -81.88988 4387 ft 241 kts 44°
2026-05-04 00:27 12.48272 -81.87843 4093 ft 227 kts 45°
2026-05-04 00:27 12.49345 -81.86765 3989 ft 205 kts 53°
2026-05-04 00:27 12.50053 -81.85604 3853 ft 180 kts 61°
2026-05-04 00:28 12.50670 -81.84528 3394 ft 170 kts 60°
2026-05-04 00:28 12.51258 -81.83509 2931 ft 162 kts 60°
2026-05-04 00:28 12.51809 -81.82555 2635 ft 150 kts 60°
2026-05-04 00:28 12.52320 -81.81665 2340 ft 141 kts 60°
2026-05-04 00:29 12.52806 -81.80817 2053 ft 136 kts 60°
2026-05-04 00:29 12.53273 -81.80003 1816 ft 134 kts 60°
2026-05-04 00:29 12.53740 -81.79186 1644 ft 133 kts 61°
2026-05-04 00:29 12.54209 -81.78366 1457 ft 133 kts 60°
2026-05-04 00:30 12.54677 -81.77553 1289 ft 132 kts 61°
2026-05-04 00:30 12.55152 -81.76727 1106 ft 132 kts 62°
2026-05-04 00:30 12.55616 -81.75920 926 ft 131 kts 60°
2026-05-04 00:30 12.56068 -81.75105 754 ft 132 kts 62°
2026-05-04 00:31 12.56555 -81.74309 595 ft 132 kts 57°
2026-05-04 00:31 12.57026 -81.73487 462 ft 134 kts 60°
2026-05-04 00:31 12.57472 -81.72653 208 ft 132 kts 58°
2026-05-04 00:31 12.57944 -81.71843 41 ft 131 kts 59°
2026-05-04 00:32 12.58375 -81.71102 22 ft 113 kts 60°
2026-05-04 00:32 12.58655 -81.70607 16 ft 38 kts 59°
2026-05-04 00:32 12.58720 -81.70495 15 ft 14 kts 59°
2026-05-04 00:32 12.58731 -81.70426 15 ft 6 kts 108°
2026-05-04 00:33 12.58719 -81.70394 16 ft 4 kts 114°
2026-05-04 00:33 12.58706 -81.70360 15 ft 3 kts 105°
2026-05-04 00:33 12.58706 -81.70351 15 ft 3 kts 85°
2026-05-04 00:34 12.58713 -81.70334 15 ft 3 kts 62°
2026-05-04 00:34 12.58728 -81.70305 15 ft 6 kts 61°
2026-05-04 00:34 12.58744 -81.70272 13 ft 3 kts 81°
2026-05-04 00:34 12.58732 -81.70255 15 ft 3 kts 147°
2026-05-04 00:35 12.58710 -81.70242 12 ft 4 kts 149°
2026-05-04 00:35 12.58691 -81.70231 14 ft 0 kts 150°